Погода в Мензе

Россия / Забайкальский край     49°25′47″N   108°51′27″E
темп.,
°C
ветер,
м/с
пор.,
м/с
влажн.,
%
обл.,
%
осадки,
мм/ч
давл.,
гПа
погр.,
м
3 августа, вт
вт300:00+11юз1189100 0.0 100415
03:00+9з119665 0.2 100411
06:00+8ссз119599 0.1 100410
09:00+13вюв008295 0.1 1004151
12:00+21в224718 0.0 1002897
15:00+23всв3340100 0.0 10002392
18:00+14зсз2395100 4.4 100280
21:00+13зсз2297100 11.5 100463
4 августа, ср
ср400:00+12ссз2397100 1.9 100667
03:00+12сз1197100 3.8 100630
06:00+10сз2398100 0.3 100860
09:00+12зсз2393100 0.3 1008280
12:00+12сз2690100 0.4 1008478
15:00+13сз2682100 0.9 1007622
18:00+15ссз3981100 0.6 10071196
21:00+12зсз2388100 0.8 100895
5 августа, чт
чт500:00+10зсз229352 0.0 100815
03:00+9зсз229565 0.0 100821
06:00+8з229557 0.0 100817
09:00+15сз178044 0.1 1006654
12:00+20сз474659 0.5 10042054
15:00+21сз464395 0.5 10032304
18:00+19ссз365394 0.0 1003972
21:00+15ссз11734 0.0 100411
6 августа, пт
пт600:00+11зюз11885 0.0 100611
03:00+10юз1194100 0.0 100611
06:00+9зюз1197100 0.0 100519
09:00+14ююз127584 0.0 1004191
12:00+21ю235240 0.1 1001684
15:00+26ю2637100 0.1 9982801
18:00+25ююв12456 0.0 997692
21:00+18з11715 0.0 99811
7 августа, сб
сб700:00+13з108789 0.0 99910
03:00+12сз11965 1.5 100110
06:00+10ююз11970 1.1 100212
09:00+14ююз23910 1.1 1002162
12:00+23ююз13463 0.1 10011202
15:00+26зюз310265 0.1 9993254
18:00+24з58370 0.0 9992335
21:00+14зсз25840 0.0 1004144